User: anonymous   Login
Location: Unspecified
(0.0000°N, 0.0000°E)
Time: 03:29:58
(UTC+00:00)
Language:

NOSS 2-3 (E) - Orbit

View from above orbital plane
View from above orbital plane
View from above satellite
View from above satellite

Ground track
Ground track

The orbit data is extracted from the following two-line orbital elements,

1 23936U 96029E   17344.02803745 0.00000140  00000-0  80834-4 0    02
2 23936  63.3700 321.6266 0618000  14.5459 345.4541 13.40884663    02
Epoch (UTC): 10 December 2017 00:40:22
Eccentricity: 0.0618000
inclination: 63.3700°
perigee height: 643 km
apogee height: 1568 km
right ascension of ascending node: 321.6266°
argument of perigee: 14.5459°
revolutions per day: 13.40884663
mean anomaly at epoch: 345.4541°
orbit number at epoch: 0

The dashed part of the orbit path shows where the satellite is in the earth's shadow,  

DLR